Location: Berg
(48.5667°N, 13.9833°E)
Time: 04:57:48
(UTC+00:00)

Cosmos 1455 - Pass Details

Date: 09 April 2020
Orbit: 498 x 524 km, 82.5° (Epoch: 01 June)

Event Time Altitude Azimuth Distance (km) Brightness Sun altitude
Exits shadow 19:56:30 30° 59° (ENE) 945 3.3 -19.9°
Drops below altitude 10° 19:59:03 10° 26° (NNE) 1,759 5.1 -20.3°
Sets 20:01:19 0° 17° (NNE) 2,656 6.1 -20.5°
